| time (UTC) | temp F | wind direction | speed knots | gust knots | rain 1hr in | rain 24hr in | rain mn in | humidity % | barometer mb |
| 20260509191556 | 74 | 338 | 2.6 | 7.0 | 0.00 | 0.00 | 0.00 | 55 | 1012.1 |
| 20260509190516 | 72 | 203 | 2.6 | 9.6 | 0.00 | 0.00 | 0.00 | 55 | 1011.9 |
| 20260509185556 | 72 | 0 | 0.9 | 3.5 | 0.00 | 0.00 | 0.00 | 59 | 1011.9 |
| 20260509184536 | 73 | 225 | 2.6 | 7.8 | 0.00 | 0.00 | 0.00 | 55 | 1011.6 |
| 20260509183536 | 71 | 203 | 1.7 | 3.5 | 0.00 | 0.00 | 0.00 | 59 | 1011.5 |
| 20260509182516 | 70 | 225 | 1.7 | 6.1 | 0.00 | 0.00 | 0.00 | 59 | 1011.5 |
| 20260509181516 | 71 | 225 | 2.6 | 7.0 | 0.00 | 0.00 | 0.00 | 60 | 1011.6 |
| 20260509180516 | 70 | 225 | 1.7 | 4.3 | 0.00 | 0.00 | 0.00 | 59 | 1011.8 |
| 20260509175516 | 71 | 225 | 1.7 | 6.1 | 0.00 | 0.00 | 0.00 | 61 | 1011.9 |
| 20260509174536 | 71 | 293 | 2.6 | 7.0 | 0.00 | 0.00 | 0.00 | 59 | 1012.0 |
| 20260509173515 | 70 | 203 | 3.5 | 7.0 | 0.00 | 0.00 | 0.00 | 59 | 1012.0 |
| 20260509172516 | 70 | 203 | 3.5 | 6.1 | 0.00 | 0.00 | 0.00 | 64 | 1012.1 |
| 20260509171516 | 69 | 203 | 2.6 | 5.2 | 0.00 | 0.00 | 0.00 | 61 | 1012.2 |
| 20260509170515 | 68 | 225 | 4.3 | 10.4 | 0.00 | 0.00 | 0.00 | 62 | 1012.3 |
| 20260509165516 | 69 | 225 | 2.6 | 7.8 | 0.00 | 0.00 | 0.00 | 61 | 1012.5 |
| 20260509164516 | 68 | 203 | 2.6 | 6.1 | 0.00 | 0.00 | 0.00 | 65 | 1012.5 |
| 20260509163536 | 68 | 248 | 2.6 | 7.8 | 0.00 | 0.00 | 0.00 | 64 | 1012.4 |
| 20260509162536 | 67 | 225 | 4.3 | 7.8 | 0.00 | 0.00 | 0.00 | 65 | 1012.3 |
| 20260509161516 | 67 | 180 | 2.6 | 7.8 | 0.00 | 0.00 | 0.00 | 65 | 1012.5 |
| 20260509160515 | 66 | 203 | 2.6 | 7.0 | 0.00 | 0.00 | 0.00 | 67 | 1012.3 |
| 20260509155515 | 66 | 225 | 4.3 | 7.8 | 0.00 | 0.00 | 0.00 | 68 | 1012.4 |
| 20260509154515 | 64 | 203 | 3.5 | 8.7 | 0.00 | 0.00 | 0.00 | 70 | 1012.5 |
| 20260509153515 | 63 | 203 | 2.6 | 7.0 | 0.00 | 0.00 | 0.00 | 76 | 1012.6 |
| 20260509152515 | 62 | 225 | 2.6 | 7.0 | 0.00 | 0.00 | 0.00 | 76 | 1012.8 |
| 20260509151515 | 63 | 203 | 2.6 | 6.1 | 0.00 | 0.00 | 0.00 | 75 | 1012.6 |
| 20260509150535 | 63 | 225 | 3.5 | 9.6 | 0.00 | 0.00 | 0.00 | 73 | 1012.6 |
| 20260509145515 | 63 | 203 | 3.5 | 10.4 | 0.00 | 0.00 | 0.00 | 75 | 1012.5 |
| 20260509144517 | 62 | 225 | 4.3 | 9.6 | 0.00 | 0.00 | 0.00 | 76 | 1012.2 |
| 20260509143517 | 62 | 225 | 3.5 | 7.0 | 0.00 | 0.00 | 0.00 | 78 | 1012.2 |
| 20260509142558 | 62 | 203 | 3.5 | 8.7 | 0.00 | 0.00 | 0.00 | 76 | 1011.9 |
| 20260509141517 | 61 | 203 | 3.5 | 8.7 | 0.00 | 0.00 | 0.00 | 78 | 1011.8 |
| 20260509140535 | 60 | 203 | 2.6 | 7.0 | 0.00 | 0.00 | 0.00 | 79 | 1012.0 |
| 20260509135517 | 59 | 203 | 2.6 | 7.8 | 0.00 | 0.00 | 0.00 | 80 | 1012.2 |
| 20260509134522 | 58 | 248 | 1.7 | 6.1 | 0.00 | 0.00 | 0.00 | 80 | 1012.4 |
| 20260509133537 | 58 | 248 | 1.7 | 4.3 | 0.00 | 0.00 | 0.00 | 81 | 1012.2 |
| 20260509132517 | 58 | 225 | 1.7 | 6.1 | 0.00 | 0.00 | 0.00 | 80 | 1012.6 |
| 20260509131537 | 58 | 203 | 1.7 | 4.3 | 0.00 | 0.00 | 0.00 | 80 | 1012.4 |
| 20260509130517 | 59 | 270 | 0.9 | 4.3 | 0.00 | 0.00 | 0.00 | 80 | 1012.1 |
| 20260509125537 | 58 | 225 | 1.7 | 4.3 | 0.00 | 0.00 | 0.00 | 82 | 1012.2 |
| 20260509124517 | 57 | 203 | 1.7 | 4.3 | 0.00 | 0.00 | 0.00 | 82 | 1012.3 |
| 20260509123517 | 57 | 248 | 1.7 | 3.5 | 0.00 | 0.00 | 0.00 | 82 | 1012.5 |
| 20260509122517 | 56 | 225 | 0.9 | 3.5 | 0.00 | 0.00 | 0.00 | 83 | 1012.1 |
| 20260509121517 | 54 | 248 | 0.9 | 2.6 | 0.00 | 0.00 | 0.00 | 84 | 1012.2 |
| 20260509120517 | 54 | 248 | 0.9 | 3.5 | 0.00 | 0.00 | 0.00 | 86 | 1012.2 |
| 20260509115537 | 53 | 0.0 | 1.7 | 0.00 | 0.00 | 0.00 | 87 | 1012.5 | |
| 20260509114517 | 52 | 293 | 0.9 | 1.7 | 0.00 | 0.00 | 0.00 | 89 | 1012.5 |
| 20260509113517 | 51 | 0.0 | 2.6 | 0.00 | 0.00 | 0.00 | 90 | 1012.7 | |
| 20260509112537 | 50 | 0.0 | 1.7 | 0.00 | 0.00 | 0.00 | 91 | 1012.6 | |
| 20260509111537 | 49 | 338 | 0.9 | 1.7 | 0.00 | 0.00 | 0.00 | 91 | 1012.6 |
| 20260509110517 | 48 | 0.0 | 0.9 | 0.00 | 0.00 | 0.00 | 91 | 1012.6 | |
| 20260509105517 | 48 | 0.0 | 1.7 | 0.00 | 0.00 | 0.00 | 90 | 1012.7 | |
| 20260509104557 | 48 | 0.0 | 0.9 | 0.00 | 0.00 | 0.00 | 89 | 1012.9 | |
| 20260509103517 | 49 | 0.0 | 1.7 | 0.00 | 0.00 | 0.00 | 90 | 1013.1 | |
| 20260509102517 | 48 | 0.0 | 0.9 | 0.00 | 0.00 | 0.00 | 90 | 1013.3 | |
| 20260509101557 | 49 | 0.0 | 0.0 | 0.00 | 0.00 | 0.00 | 89 | 1012.8 | |
| 20260509100517 | 49 | 0.0 | 1.7 | 0.00 | 0.00 | 0.00 | 90 | 1012.8 | |
| 20260509095517 | 48 | 0.0 | 0.0 | 0.00 | 0.00 | 0.00 | 89 | 1012.6 | |
| 20260509094537 | 48 | 0.0 | 0.9 | 0.00 | 0.00 | 0.00 | 88 | 1012.5 | |
| 20260509093517 | 48 | 0.0 | 0.0 | 0.00 | 0.00 | 0.00 | 89 | 1012.4 | |
| 20260509092517 | 48 | 0.0 | 0.0 | 0.00 | 0.00 | 0.00 | 89 | 1012.4 | |
| 20260509091517 | 48 | 0.0 | 0.0 | 0.00 | 0.00 | 0.00 | 88 | 1012.4 | |
| 20260509090517 | 48 | 0.0 | 0.0 | 0.00 | 0.00 | 0.00 | 88 | 1012.4 | |
| 20260509085516 | 48 | 0.0 | 1.7 | 0.00 | 0.00 | 0.00 | 88 | 1012.4 | |
| 20260509084516 | 48 | 0.0 | 0.9 | 0.00 | 0.00 | 0.00 | 87 | 1012.2 | |
| 20260509083517 | 48 | 0.0 | 0.9 | 0.00 | 0.00 | 0.00 | 86 | 1012.1 | |
| 20260509082516 | 49 | 0.0 | 0.0 | 0.00 | 0.00 | 0.00 | 86 | 1012.2 | |
| 20260509081517 | 49 | 0.0 | 1.7 | 0.00 | 0.00 | 0.00 | 84 | 1012.2 | |
| 20260509080536 | 49 | 0.0 | 0.0 | 0.00 | 0.00 | 0.00 | 83 | 1012.3 | |
| 20260509075516 | 50 | 0.0 | 1.7 | 0.00 | 0.00 | 0.00 | 81 | 1012.5 | |
| 20260509074517 | 50 | 0.0 | 1.7 | 0.00 | 0.00 | 0.00 | 85 | 1012.5 | |
| 20260509073536 | 49 | 315 | 0.9 | 1.7 | 0.00 | 0.00 | 0.00 | 86 | 1012.4 |
| 20260509072516 | 49 | 0.0 | 1.7 | 0.00 | 0.00 | 0.00 | 83 | 1012.4 | |
| 20260509071516 | 49 | 338 | 0.9 | 0.9 | 0.00 | 0.00 | 0.00 | 83 | 1012.5 |
| 20260509070516 | 50 | 0.0 | 0.9 | 0.00 | 0.00 | 0.00 | 78 | 1012.5 | |
| 20260509065516 | 51 | 338 | 0.9 | 0.9 | 0.00 | 0.00 | 0.00 | 82 | 1012.6 |
| 20260509064516 | 50 | 315 | 0.9 | 1.7 | 0.00 | 0.00 | 0.00 | 83 | 1012.5 |
| 20260509063516 | 48 | 315 | 0.9 | 1.7 | 0.00 | 0.00 | 0.00 | 86 | 1012.5 |
| 20260509062516 | 47 | 0.0 | 1.7 | 0.00 | 0.00 | 0.00 | 85 | 1012.5 | |
| 20260509061516 | 47 | 0.0 | 0.9 | 0.00 | 0.00 | 0.00 | 84 | 1012.6 | |
| 20260509055516 | 46 | 0.0 | 0.0 | 0.00 | 0.00 | 0.00 | 84 | 1012.9 | |
| 20260509054516 | 47 | 0.0 | 1.7 | 0.00 | 0.00 | 0.00 | 83 | 1013.1 | |
| 20260509053516 | 47 | 0.0 | 1.7 | 0.00 | 0.00 | 0.00 | 83 | 1013.2 | |
| 20260509052516 | 47 | 0.0 | 1.7 | 0.00 | 0.00 | 0.00 | 83 | 1013.3 | |
| 20260509051536 | 47 | 0.0 | 0.9 | 0.00 | 0.00 | 0.00 | 81 | 1013.3 | |
| 20260509050516 | 48 | 0.0 | 1.7 | 0.00 | 0.00 | 0.00 | 81 | 1013.4 | |
| 20260509045536 | 48 | 0.0 | 0.9 | 0.00 | 0.00 | 0.00 | 81 | 1013.5 | |
| 20260509044516 | 48 | 0.0 | 1.7 | 0.00 | 0.00 | 0.00 | 80 | 1013.7 | |
| 20260509043516 | 48 | 0.0 | 1.7 | 0.00 | 0.00 | 0.00 | 80 | 1013.8 | |
| 20260509042516 | 48 | 0.0 | 1.7 | 0.00 | 0.00 | 0.00 | 79 | 1013.9 | |
| 20260509041516 | 48 | 0.0 | 0.0 | 0.00 | 0.00 | 0.00 | 78 | 1013.7 | |
| 20260509040516 | 49 | 0.0 | 1.7 | 0.00 | 0.00 | 0.00 | 77 | 1013.9 | |
| 20260509035517 | 49 | 0.0 | 0.0 | 0.00 | 0.00 | 0.00 | 76 | 1013.8 | |
| 20260509034517 | 49 | 0.0 | 1.7 | 0.00 | 0.00 | 0.00 | 78 | 1013.8 | |
| 20260509033517 | 49 | 0.0 | 1.7 | 0.00 | 0.00 | 0.00 | 75 | 1013.9 | |
| 20260509032517 | 50 | 0.0 | 0.9 | 0.00 | 0.00 | 0.00 | 75 | 1014.1 | |
| 20260509031517 | 50 | 0.0 | 0.0 | 0.00 | 0.00 | 0.00 | 72 | 1014.1 | |
| 20260509030517 | 51 | 0.0 | 1.7 | 0.00 | 0.00 | 0.00 | 71 | 1014.1 | |
| 20260509025517 | 51 | 0.0 | 0.9 | 0.00 | 0.00 | 0.00 | 70 | 1014.2 | |
| 20260509024517 | 51 | 0.0 | 0.9 | 0.00 | 0.00 | 0.00 | 71 | 1014.0 | |
| 20260509023517 | 52 | 0.0 | 0.0 | 0.00 | 0.00 | 0.00 | 70 | 1014.1 | |
| 20260509022516 | 53 | 0.0 | 0.0 | 0.00 | 0.00 | 0.00 | 67 | 1014.2 | |
| 20260509021537 | 53 | 0.0 | 0.9 | 0.00 | 0.00 | 0.00 | 67 | 1014.2 | |
| 20260509020540 | 53 | 0.0 | 0.0 | 0.00 | 0.00 | 0.00 | 67 | 1014.2 | |
| 20260509015517 | 54 | 0.0 | 0.0 | 0.00 | 0.00 | 0.00 | 62 | 1013.9 | |
| 20260509014517 | 55 | 0.0 | 1.7 | 0.00 | 0.00 | 0.00 | 61 | 1013.6 | |
| 20260509013637 | 55 | 0.0 | 0.0 | 0.00 | 0.00 | 0.00 | 58 | 1013.9 | |
| 20260509012516 | 56 | 0.0 | 0.0 | 0.00 | 0.00 | 0.00 | 58 | 1013.6 | |
| 20260509011537 | 56 | 0.0 | 0.0 | 0.00 | 0.00 | 0.00 | 56 | 1013.5 | |
| 20260509010517 | 57 | 0.0 | 1.7 | 0.00 | 0.00 | 0.00 | 60 | 1013.4 | |
| 20260509005517 | 58 | 338 | 0.9 | 0.9 | 0.00 | 0.00 | 0.00 | 59 | 1013.5 |
| 20260509004537 | 58 | 0.0 | 0.0 | 0.00 | 0.00 | 0.00 | 52 | 1013.1 | |
| 20260509003516 | 59 | 0.0 | 1.7 | 0.00 | 0.00 | 0.00 | 53 | 1013.2 | |
| 20260509002516 | 60 | 315 | 0.9 | 0.9 | 0.00 | 0.00 | 0.00 | 55 | 1013.2 |
| 20260509001517 | 61 | 0.0 | 0.9 | 0.00 | 0.00 | 0.00 | 48 | 1012.8 | |
| 20260509000516 | 61 | 0.0 | 1.7 | 0.00 | 0.00 | 0.00 | 47 | 1013.1 | |
| 20260508235516 | 63 | 315 | 0.9 | 0.9 | 0.00 | 0.00 | 0.00 | 46 | 1013.1 |
| 20260508234516 | 64 | 315 | 0.9 | 0.9 | 0.00 | 0.00 | 0.00 | 41 | 1013.0 |
| 20260508233516 | 66 | 0.0 | 1.7 | 0.00 | 0.00 | 0.00 | 38 | 1013.5 | |
| 20260508232516 | 68 | 270 | 0.9 | 2.6 | 0.00 | 0.00 | 0.00 | 34 | 1013.3 |
| 20260508231516 | 70 | 0.0 | 1.7 | 0.00 | 0.00 | 0.00 | 34 | 1013.4 | |
| 20260508230516 | 70 | 0.0 | 1.7 | 0.00 | 0.00 | 0.00 | 33 | 1013.4 | |
| 20260508225516 | 70 | 203 | 0.9 | 3.5 | 0.00 | 0.00 | 0.00 | 30 | 1013.6 |
| 20260508224516 | 70 | 315 | 0.9 | 2.6 | 0.00 | 0.00 | 0.00 | 33 | 1013.6 |
| 20260508223516 | 70 | 225 | 1.7 | 4.3 | 0.00 | 0.00 | 0.00 | 33 | 1013.6 |
| 20260508222516 | 70 | 225 | 1.7 | 6.1 | 0.00 | 0.00 | 0.00 | 36 | 1013.8 |
| 20260508221516 | 70 | 248 | 2.6 | 7.0 | 0.00 | 0.00 | 0.00 | 30 | 1013.9 |
| 20260508220516 | 71 | 248 | 0.9 | 2.6 | 0.00 | 0.00 | 0.00 | 32 | 1013.9 |
| 20260508215516 | 71 | 203 | 2.6 | 7.8 | 0.00 | 0.00 | 0.00 | 31 | 1013.8 |
| 20260508214617 | 71 | 270 | 0.9 | 3.5 | 0.00 | 0.00 | 0.00 | 29 | 1013.8 |
| 20260508213516 | 71 | 225 | 2.6 | 7.8 | 0.00 | 0.00 | 0.00 | 33 | 1013.9 |
| 20260508212516 | 71 | 203 | 1.7 | 4.3 | 0.00 | 0.00 | 0.00 | 33 | 1013.7 |
| 20260508211516 | 71 | 248 | 0.9 | 3.5 | 0.00 | 0.00 | 0.00 | 31 | 1013.9 |
| 20260508210536 | 71 | 270 | 1.7 | 3.5 | 0.00 | 0.00 | 0.00 | 30 | 1013.9 |
| 20260508205516 | 70 | 248 | 2.6 | 7.0 | 0.00 | 0.00 | 0.00 | 30 | 1013.9 |
| 20260508204516 | 70 | 225 | 1.7 | 4.3 | 0.00 | 0.00 | 0.00 | 36 | 1014.0 |
| 20260508203536 | 70 | 270 | 1.7 | 5.2 | 0.00 | 0.00 | 0.00 | 33 | 1014.2 |
| 20260508202516 | 69 | 315 | 1.7 | 8.7 | 0.00 | 0.00 | 0.00 | 36 | 1014.2 |
| 20260508201516 | 70 | 0 | 2.6 | 7.8 | 0.00 | 0.00 | 0.00 | 38 | 1014.5 |
| 20260508200516 | 70 | 225 | 0.9 | 3.5 | 0.00 | 0.00 | 0.00 | 35 | 1014.7 |
| 20260508195516 | 70 | 225 | 2.6 | 5.2 | 0.00 | 0.00 | 0.00 | 36 | 1014.9 |
| 20260508194516 | 70 | 225 | 0.9 | 2.6 | 0.00 | 0.00 | 0.00 | 36 | 1015.3 |
| 20260508193516 | 69 | 180 | 1.7 | 8.7 | 0.00 | 0.00 | 0.00 | 36 | 1015.7 |
| 20260508192536 | 69 | 203 | 2.6 | 6.1 | 0.00 | 0.00 | 0.00 | 34 | 1015.8 |